Flag for U.S.A. Weather past 2 weeks in Arlington, Texas, U.S.A.

Now
86 °F

Scattered clouds.


Feels Like: 92 °F
Forecast: 72 / 88 °F
Wind: 12 mph from Southeast

Location: Arlington Municipal Airport

Current Time: Jul 30, 2014 at 3:40:58 PM

Latest Report: Jul 30, 2014 at 2:53 PM


Visibility: 10 mi

Pressure: 29.96 "Hg

Humidity: 61%

Dew point: 71 °F

Location of ArlingtonLocation

Historic Weather in Arlington — Graph

°F

Arlington temperature yesterday

Maximum temperature yesterday: 83 °F (at 6:53 PM)
Minimum temperature yesterday: 72 °F (at 11:53 PM)
Average temperature yesterday: 79 °F

Past Weeks' High & Low Weather Summary

 TemperatureHumidityPressure
High101 °F (Jul 27, 3:53 PM)94% (Jul 17, 1:02 PM)30.14 "Hg (Jul 17, 1:02 PM)
Low65 °F (Jul 20, 5:53 AM)23% (Jul 15, 4:53 PM)29.83 "Hg (Jul 16, 6:53 PM)
Average82 °F62%29.98 "Hg
* Reported Jul 15 1:53 PM — Jul 30 1:53 PM, Arlington, Weather by CustomWeather, © 2014

Note: Actual official high and low records may vary slightly from our data, if they occured in-between our weather recording intervals... More about our weather records

Advertising

Arlington weather history for previous 24 hours

 ConditionsComfort  
Time TempWeatherWind HumidityBarometerVisibility
1:53 PM
Jul 30
83 °FScattered clouds.12 mph70%29.98 "Hg10 mi
12:53 PM82 °FSunny.14 mph70%30.01 "Hg10 mi
11:53 AM79 °FPassing clouds.12 mph79%30.03 "Hg10 mi
10:53 AM78 °FSunny.13 mph82%30.04 "Hg10 mi
9:53 AM77 °FWarm.9 mph85%30.04 "Hg10 mi
8:53 AM77 °FOvercast.8 mph82%30.05 "Hg10 mi
7:53 AM76 °FLight rain. Partly sunny.3 mph82%30.03 "Hg10 mi
6:53 AM76 °FOvercast.No wind77%30.01 "Hg10 mi
5:53 AM76 °FPassing clouds.8 mph74%30.01 "Hg10 mi
4:53 AM77 °FClear.5 mph69%30.01 "Hg10 mi
3:53 AM75 °FPassing clouds.5 mph74%30.00 "Hg10 mi
2:53 AM72 °FClear.6 mph76%30.00 "Hg10 mi
1:53 AM71 °FClear.3 mph78%30.01 "Hg10 mi
12:53 AM70 °FClear.No wind81%30.03 "Hg10 mi
11:53 PM
Jul 29
72 °FClear.No wind76%30.04 "Hg10 mi
10:53 PM73 °FClear.No wind74%30.04 "Hg10 mi
9:53 PM74 °FClear.No wind69%30.03 "Hg10 mi
8:53 PM79 °FSunny.No wind54%30.03 "Hg10 mi
7:53 PM81 °FSunny.5 mph42%30.03 "Hg10 mi
6:53 PM83 °FPassing clouds.3 mph43%30.05 "Hg10 mi
5:53 PM82 °FSunny.3 mph49%30.05 "Hg10 mi
4:53 PM82 °FPartly sunny.No wind49%30.06 "Hg10 mi
3:53 PM81 °FPassing clouds.No wind56%30.08 "Hg10 mi
Weather by CustomWeather, © 2014

See weather overviewHow to use our weather pages